Meteo Giornale » Osservazioni meteo Stati Uniti (USA) » Phoenix Sky Harbor
ore: 10:51 - Osservazioni Meteo Phoenix Sky Harbor
Lat. 33° 26' N Lon. 112° 3' W Alt. 345 metri s.l.m.
33 °C
Poco Nuvoloso
Temp. 24 Ore
27 °C
33 °C
Sud/Sud-Est
9.3 Km/h
Dew point 19 °C
Umidità 43 %
Visibilità 10 Km
Il sole sorge alle ore 06:02
Il sole tramonta alle ore 18:53
| Data e Ora | Cielo e Fenomeni | T °C | DP °C | Um. % | Pres. hPa | Vis. km | Vento km/h | |
|---|---|---|---|---|---|---|---|---|
| Oggi h: 10:51 | Poco Nuvoloso | 33 | 19 | 43 | 1015 | 10 | S/SE 9.3 | |
| Oggi h: 09:51 | Poco Nuvoloso | 31 | 19 | 48 | 1015 | 10 | S/SE 7.4 | |
| Oggi h: 08:51 | Poco Nuvoloso | 30 | 19 | 51 | 1014 | 10 | S/SE 16.7 | |
| Oggi h: 07:51 | Poco Nuvoloso | 29 | 19 | 54 | 1014 | 10 | E 14.8 | |
| Oggi h: 06:51 | Poco Nuvoloso | 27 | 19 | 61 | 1014 | 10 | E/SE 11.1 | |
| Oggi h: 05:51 | Poco Nuvoloso | 27 | 19 | 61 | 1013 | 10 | E 11.1 | |
| Oggi h: 04:51 | Sereno | 27 | 19 | 61 | 1013 | 10 | E/SE 7.4 | |
| Oggi h: 03:51 | Sereno | 27 | 19 | 61 | 1013 | 10 | E 16.7 | |
| Oggi h: 02:51 | Sereno | 27 | 19 | 61 | 1013 | 10 | E/SE 9.3 | |
| Oggi h: 01:51 | Sereno | 28 | 19 | 58 | 1013 | 10 | N 5.5 | |
| Oggi h: 00:51 | Sereno | 28 | 19 | 58 | 1013 | 10 | E/SE 7.4 | |
| Ieri h: 23:51 | Sereno | 28 | 18 | 54 | 1012 | 10 | E 7.4 | |
| Ieri h: 22:51 | Sereno | 29 | 18 | 51 | 1012 | 10 | S/SE 7.4 | |
| Ieri h: 21:51 | Nuvoloso | 29 | 18 | 51 | 1012 | 10 | SE 11.1 | |
| Ieri h: 20:51 | Molto Nuvoloso | 29 | 18 | 51 | 1012 | 10 | S 13 | |
| Ieri h: 19:51 | Molto Nuvoloso | 31 | 16 | 40 | 1011 | 10 | S 11.1 | |
| Ieri h: 18:51 | Molto Nuvoloso | 31 | 17 | 43 | 1011 | 10 | N 5.5 | |
| Ieri h: 17:51 | Molto Nuvoloso | 31 | 17 | 43 | 1011 | 10 | N 7.4 | |
| Ieri h: 16:51 | Poco Nuvoloso | 32 | 17 | 40 | 1011 | 10 | SE 13 | |
| Ieri h: 15:51 | Poco Nuvoloso | 32 | 18 | 43 | 1012 | 10 | E/SE 18.5 | |
| Ieri h: 14:51 | Nuvoloso | 31 | 18 | 45 | 1013 | 10 | SE 22.2 | |
| Ieri h: 13:51 | Nuvoloso | 30 | 19 | 51 | 1015 | 10 | SE 14.8 | |
| Ieri h: 12:51 | Nuvoloso | 28 | 19 | 58 | 1015 | 10 | S/SE 18.5 | |
| Ieri h: 11:51 | Nuvoloso | 27 | 19 | 61 | 1015 | 10 | S/SE 25.9 | |



